Flag for Lebanon Weather past 2 weeks in Sidon, Lebanon

Now
77 °F

Passing clouds.


Feels Like: 79 °F
Forecast: 76 / 86 °F
Wind: 6 mph from Southwest

Location: Beirut Airport

Current Time: Jul 4, 2015 at 12:06:37 AM

Latest Report: Jul 3, 2015 at 11:00 PM


Visibility: 5 mi

Pressure: 29.92 "Hg

Humidity: 74%

Dew point: 68 °F

Location of SidonLocation

Historic Weather in Sidon — Graph

°F

Sidon temperature yesterday

Maximum temperature yesterday: 82 °F (at 12:00 PM)
Minimum temperature yesterday: 75 °F (at 5:00 AM)
Average temperature yesterday: 79 °F

Past Weeks' High & Low Weather Summary

 TemperatureHumidityPressure
High82 °F (Jun 19, 8:00 AM)83% (Jun 20, 3:00 AM)30.01 "Hg (Jun 20, 3:00 AM)
Low72 °F (Jun 22, 6:00 AM)37% (Jun 19, 8:00 AM)29.62 "Hg (Jun 28, 3:00 AM)
Average78 °F65%29.86 "Hg
* Reported Jun 18 11:00 PM — Jul 3 11:00 PM, Sidon, Weather by CustomWeather, © 2015

Note: Actual official high and low records may vary slightly from our data, if they occured in-between our weather recording intervals... More about our weather records

Advertising

Sidon weather history for previous 24 hours

 ConditionsComfort  
Time TempWeatherWind HumidityBarometerVisibility
11:00 PM
Fri, Jul 3
77 °FPassing clouds.6 mph74%29.92 "Hg5 mi
10:00 PM77 °FPassing clouds.6 mph74%29.92 "Hg5 mi
9:00 PM79 °FPassing clouds.7 mph70%29.92 "Hg5 mi
8:00 PM79 °FPartly sunny.8 mph70%29.92 "Hg5 mi
7:00 PM82 °FPartly sunny.9 mph62%29.92 "Hg5 mi
6:00 PM81 °FScattered clouds.10 mph66%29.92 "Hg5 mi
5:00 PM82 °FScattered clouds.10 mph62%29.92 "Hg5 mi
4:00 PM81 °FScattered clouds.10 mph66%29.92 "Hg5 mi
3:00 PM82 °FScattered clouds.10 mph62%29.92 "Hg5 mi
2:00 PM81 °FScattered clouds.10 mph70%29.92 "Hg5 mi
1:00 PM82 °FScattered clouds.12 mph62%29.92 "Hg5 mi
12:00 PM82 °FScattered clouds.12 mph62%29.92 "Hg5 mi
11:00 AM81 °FScattered clouds.10 mph66%29.92 "Hg5 mi
10:00 AM81 °FScattered clouds.10 mph70%29.92 "Hg5 mi
9:00 AM81 °FScattered clouds.10 mph70%29.92 "Hg5 mi
8:00 AM77 °FScattered clouds.6 mph79%29.92 "Hg5 mi
7:00 AM75 °FFog.3 mph78%29.92 "Hg3 mi
6:00 AM75 °FFog.5 mph83%29.89 "Hg3 mi
5:00 AM75 °FFog.5 mph83%29.89 "Hg3 mi
4:00 AM77 °FFog.5 mph83%29.89 "Hg3 mi
3:00 AM77 °FFog.3 mph79%29.89 "Hg3 mi
2:00 AM77 °FFog.2 mph79%29.89 "Hg3 mi
1:00 AM77 °FFog.3 mph79%29.92 "Hg3 mi
12:00 AM77 °FFog.5 mph79%29.92 "Hg3 mi
Weather by CustomWeather, © 2015

See weather overviewHow to use our weather pages